Wind_Speed
22 27 31 34 44 50 51 47 41 37 35 32 28 27 28 28 24 24 23 24 24 25 23 23 23 21 23 24 24 23 22 23 26 26 24 20 17 12 13 16 20 18 17
20 27 32 36 38 45 44 41 39 37 34 31 30 30 30 29 27 23 23 22 22 21 22 22 23 21 22 22 21 21 21 21 23 23 19 15 12 12 12 12 11 15 17
24 23 24 24 39 44 38 36 40 32 30 27 30 34 33 29 29 26 25 23 20 19 19 20 19 19 21 21 21 21 20 20 20 20 17 13 11 10 11 11 12 16 17
28 35 36 30 27 40 39 36 36 33 25 21 26 31 33 30 29 27 26 24 21 18 16 17 17 19 19 18 21 20 17 18 18 19 18 13 11 10 11 10 10 11 13
9 12 17 21 22 31 31 33 32 28 22 19 24 27 31 35 31 30 28 25 20 18 16 15 17 17 16 16 17 17 16 15 16 18 17 15 13 12 12 11 11 12 14
5 7 10 11 17 23 18 15 18 18 7 9 9 19 26 34 34 29 29 26 22 20 18 14 14 16 16 15 15 14 15 16 15 16 18 17 14 12 13 12 12 12 16
1 5 6 8 12 16 18 19 20 14 19 27 20 25 25 30 34 33 31 27 23 22 21 17 15 15 16 15 15 15 14 15 15 14 16 15 14 10 10 10 12 12 13
4 1 1 1 4 8 11 13 15 17 13 16 21 32 23 32 31 33 37 32 23 23 24 18 16 12 16 15 15 17 14 14 15 13 13 11 12 11 13 14 14 15 16
3 5 4 4 2 3 3 4 7 7 4 4 8 20 27 29 28 35 39 44 44 32 25 20 21 16 13 13 15 17 16 14 13 13 13 14 14 14 14 14 14 16 21
14 12 8 5 3 5 4 6 5 2 3 4 6 11 18 22 32 35 39 41 37 27 25 25 28 21 17 17 17 17 19 16 16 15 15 16 18 18 18 18 16 17 18
15 14 11 9 12 14 13 7 2 4 6 7 14 18 16 16 21 27 34 30 28 30 28 25 23 20 24 24 24 23 23 19 19 20 19 20 21 22 22 22 21 18 19
10 9 11 14 14 14 12 12 10 1 6 6 7 13 14 11 6 17 22 29 25 18 20 25 28 21 20 26 28 25 25 24 23 24 25 25 26 27 25 25 25 25 25
5 5 7 8 11 13 14 14 15 11 8 8 7 7 4 6 7 11 13 18 21 26 25 23 23 23 29 26 22 23 24 23 21 22 23 24 26 29 29 28 28 27 28
3 4 4 4 6 8 10 13 16 16 16 13 11 9 8 6 4 3 5 7 11 16 19 21 22 23 24 23 22 22 23 24 24 24 26 26 26 26 27 25 26 27 28
2 2 1 2 2 5 6 6 9 12 15 14 13 11 10 9 8 6 5 2 1 6 10 9 10 17 20 22 26 28 28 27 27 28 25 26 27 26 28 27 29 29 30
2 1 1 3 3 3 3 4 4 4 6 9 9 10 10 10 9 8 6 5 4 3 3 6 9 12 14 16 19 21 21 22 23 23 20 20 22 24 25 25 25 26 27
3 3 2 1 3 4 6 6 3 2 4 4 4 4 6 7 9 8 9 8 6 6 7 5 5 6 7 7 11 14 15 15 15 19 19 21 25 24 23 22 22 21 21
3 1 1 0 2 3 1 3 4 3 2 1 2 1 1 4 8 10 11 10 8 7 5 4 6 8 8 10 13 14 14 13 13 13 16 20 20 20 20 21 19 19 19
4 3 5 4 3 7 8 4 3 1 1 2 2 2 0 3 7 10 9 8 8 7 6 5 5 5 7 8 9 12 15 16 16 15 16 15 16 19 19 18 19 20 19
5 3 3 2 3 3 3 4 5 2 2 1 4 4 2 2 6 9 8 7 8 8 9 10 10 10 10 10 9 6 5 6 6 8 11 13 15 17 17 20 22 20 16
6 4 2 4 5 5 5 2 1 3 3 3 4 1 1 3 5 6 4 4 4 5 6 7 9 10 11 11 11 10 10 10 9 8 8 9 11 12 12 13 14 13 11
6 4 1 2 4 4 4 2 2 2 2 3 4 3 5 5 6 4 4 3 2 1 1 2 4 5 6 7 7 8 10 10 10 11 10 10 10 11 8 6 7 7 7
4 4 3 2 2 5 7 8 5 4 5 5 6 8 8 7 6 5 4 3 3 4 5 4 6 7 8 9 9 9 8 8 8 9 8 8 8 8 6 8 8 8 7
5 6 6 6 4 4 3 4 6 8 9 11 7 5 8 10 10 7 5 5 6 7 8 7 9 10 10 9 9 9 10 9 9 9 8 8 6 6 6 6 5 5 5
9 9 10 9 6 7 7 7 8 7 5 7 8 8 5 7 10 11 9 9 10 11 9 8 7 7 7 7 8 9 11 12 11 9 8 7 7 6 4 3 3 1 1
6 7 7 7 7 7 8 9 9 8 8 7 5 5 7 7 7 10 13 13 14 13 11 10 9 7 6 7 9 9 10 10 9 10 10 8 6 6 6 5 4 5 5
Wind_Direction
242 250 249 244 241 244 239 241 241 243 245 247 245 245 243 243 242 249 256 262 258 262 256 249 253 248 248 251 254 256 257 256 264 276 285 290 287 292 288 272 251 246 252
211 222 234 249 247 247 245 242 241 245 243 245 247 243 240 242 245 249 257 262 262 258 250 248 249 251 250 250 254 255 257 261 264 273 278 277 284 286 276 279 255 246 246
247 254 255 258 249 245 242 238 241 239 238 242 247 246 243 242 246 252 259 260 259 253 249 250 252 253 252 256 259 258 258 260 262 269 272 263 269 276 282 273 258 263 268
255 246 249 248 249 244 240 235 235 233 227 235 252 252 249 248 248 250 252 255 254 246 242 246 254 257 261 257 257 254 251 253 256 260 263 259 254 260 266 263 262 271 272
247 240 236 231 226 230 225 223 219 219 210 222 242 253 253 250 246 246 243 245 245 239 240 245 257 263 266 260 248 250 247 245 251 255 258 259 259 262 269 280 276 280 279
240 193 187 205 212 207 204 193 202 195 220 223 257 249 258 249 247 245 238 237 239 238 235 239 258 264 265 256 246 242 249 247 247 252 257 265 268 277 284 282 274 272 275
182 180 191 183 194 204 209 212 212 229 233 241 253 260 269 250 247 244 240 235 237 249 241 234 243 254 256 253 254 247 239 247 247 252 259 262 268 276 278 279 284 279 279
39 70 158 318 251 233 222 221 224 229 234 262 238 250 258 239 246 245 239 236 228 252 250 235 241 240 244 248 253 255 244 241 246 250 261 270 274 268 265 267 273 273 271
68 63 49 51 68 82 119 156 215 223 223 255 254 259 259 240 237 235 228 238 246 239 246 243 237 228 233 241 246 253 250 238 238 251 259 265 261 261 263 267 270 274 276
61 51 41 57 41 58 49 35 9 315 271 293 276 258 268 250 239 246 235 232 230 237 237 241 237 228 228 237 243 247 254 251 249 249 259 265 264 260 261 267 273 276 277
65 60 52 53 54 52 47 43 266 230 218 251 256 256 260 263 252 247 232 230 243 243 232 233 239 252 243 242 244 247 253 256 252 255 254 256 257 257 259 258 261 264 269
79 73 59 62 59 52 44 42 39 138 181 212 228 232 256 250 260 229 230 229 240 239 230 239 240 254 270 257 245 251 255 255 252 256 263 264 263 264 266 261 260 263 266
69 69 60 51 59 56 53 48 57 68 125 121 139 134 168 187 201 207 220 227 232 229 235 244 250 236 260 254 252 252 256 256 255 261 264 267 271 274 270 265 262 261 264
35 39 56 68 64 57 56 57 64 71 81 94 95 94 101 108 116 153 181 212 238 251 251 243 240 245 256 249 251 263 266 265 268 265 271 273 268 267 271 273 270 265 263
306 326 222 137 97 90 82 76 63 68 75 77 76 79 79 81 82 74 62 68 258 243 239 243 238 253 251 257 258 261 260 260 264 270 272 270 266 270 271 273 271 268 269
355 215 163 164 133 126 110 95 88 78 81 84 83 79 78 67 53 45 38 22 349 316 286 273 263 249 256 262 265 269 275 273 267 264 262 265 269 271 272 275 276 270 271
288 204 196 227 287 280 254 233 204 119 108 103 68 57 58 47 42 31 15 5 353 319 293 281 287 288 276 280 287 289 288 279 279 261 263 262 266 268 270 278 280 279 277
87 103 179 40 16 19 323 204 183 155 101 2 313 296 354 16 14 15 13 12 13 14 357 326 309 296 291 286 284 288 285 287 282 274 264 267 267 266 269 268 272 277 282
113 72 128 122 94 46 54 113 135 184 269 273 273 326 233 341 347 356 7 11 23 18 14 2 358 346 332 319 305 289 284 278 270 271 267 272 279 273 281 268 274 277 279
174 105 92 82 24 3 14 26 37 47 24 341 271 252 179 297 328 338 351 4 18 40 52 54 52 46 41 33 24 9 343 322 301 277 276 275 280 277 277 282 275 272 272
186 180 117 34 20 40 63 59 357 343 9 49 29 172 276 277 319 314 332 338 22 65 57 48 50 49 41 40 35 32 31 30 23 11 353 327 302 287 278 279 275 277 275
183 201 188 13 59 50 35 21 19 3 1 330 311 298 293 279 271 281 306 305 301 250 0 35 23 10 7 11 13 16 20 19 22 23 25 24 21 20 3 319 294 294 278
199 191 165 52 49 46 50 49 43 12 352 317 282 264 254 245 269 272 267 268 274 269 291 310 321 324 332 335 336 339 345 348 349 354 0 7 17 21 33 42 52 71 92
225 214 217 253 262 272 297 355 2 360 355 359 341 299 257 254 255 251 253 269 278 284 281 293 302 303 307 311 309 310 313 316 314 316 320 324 341 5 33 55 66 69 75
232 246 266 257 248 275 277 275 283 298 324 4 27 20 348 262 253 242 248 260 281 276 267 268 289 304 312 320 313 304 302 294 290 289 288 301 308 291 284 292 298 296 235
224 244 243 231 242 273 273 264 267 254 264 283 312 342 358 345 278 253 254 247 257 260 257 259 261 266 281 302 314 316 312 305 285 269 266 284 289 278 275 265 273 269 251
Height
1443 1445 1446 1448 1447 1450 1453 1459 1462 1467 1476 1481 1486 1490 1494 1498 1501 1502 1504 1505 1507 1509 1511 1512 1514 1516 1518 1520 1520 1520 1521 1522 1521 1521 1521 1521 1521 1521 1520 1520 1522 1525 1528
1440 1442 1443 1443 1445 1443 1447 1453 1453 1461 1467 1475 1481 1483 1486 1491 1495 1497 1498 1499 1500 1502 1505 1507 1509 1511 1512 1514 1514 1514 1515 1517 1518 1517 1516 1516 1516 1516 1517 1518 1520 1521 1523
1439 1439 1440 1440 1438 1439 1442 1445 1448 1452 1460 1465 1472 1476 1480 1484 1488 1492 1494 1495 1495 1496 1499 1502 1504 1506 1506 1509 1509 1509 1510 1511 1513 1513 1513 1512 1513 1514 1514 1515 1516 1519 1521
1430 1430 1432 1434 1434 1434 1437 1441 1446 1446 1450 1455 1464 1470 1476 1480 1482 1486 1488 1489 1491 1491 1493 1497 1500 1502 1502 1502 1503 1503 1504 1505 1508 1509 1509 1508 1507 1509 1511 1511 1513 1514 1516
1427 1426 1427 1428 1428 1429 1432 1435 1439 1440 1439 1441 1454 1462 1469 1473 1474 1478 1482 1485 1486 1487 1489 1491 1494 1497 1497 1497 1498 1500 1500 1500 1502 1505 1506 1505 1504 1505 1507 1509 1510 1511 1511
1428 1427 1426 1427 1427 1426 1429 1431 1435 1437 1434 1433 1447 1453 1460 1464 1469 1471 1474 1478 1482 1484 1483 1485 1488 1491 1493 1494 1494 1494 1497 1497 1497 1499 1501 1501 1501 1502 1503 1504 1504 1504 1506
1432 1430 1429 1429 1429 1430 1428 1426 1425 1426 1426 1428 1434 1442 1452 1457 1461 1465 1468 1472 1476 1480 1482 1480 1480 1482 1488 1489 1491 1491 1490 1493 1493 1495 1497 1498 1499 1499 1499 1500 1501 1501 1502
1431 1431 1431 1430 1429 1427 1426 1423 1421 1420 1420 1418 1414 1433 1446 1448 1450 1455 1462 1466 1466 1471 1478 1475 1477 1476 1481 1483 1486 1488 1486 1487 1490 1490 1492 1495 1496 1496 1496 1496 1497 1498 1498
1434 1432 1431 1430 1430 1430 1426 1419 1420 1416 1415 1419 1419 1431 1435 1440 1440 1447 1451 1457 1460 1465 1470 1470 1474 1473 1475 1477 1480 1484 1485 1483 1486 1487 1487 1491 1492 1493 1492 1492 1492 1494 1493
1432 1431 1431 1428 1427 1423 1420 1414 1413 1412 1412 1414 1421 1426 1431 1431 1435 1442 1445 1450 1454 1458 1461 1465 1472 1469 1469 1472 1475 1478 1480 1481 1481 1482 1483 1485 1488 1489 1488 1489 1489 1490 1490
1435 1435 1434 1430 1423 1419 1417 1417 1417 1414 1411 1415 1424 1428 1429 1430 1432 1436 1440 1446 1450 1453 1456 1460 1462 1462 1464 1465 1470 1472 1473 1476 1475 1476 1477 1479 1481 1482 1482 1482 1483 1483 1483
1440 1439 1438 1432 1426 1423 1421 1418 1414 1414 1413 1421 1426 1428 1430 1428 1427 1432 1437 1442 1444 1447 1449 1452 1455 1459 1457 1462 1464 1465 1467 1468 1468 1469 1470 1471 1475 1476 1475 1476 1477 1478 1478
1441 1440 1438 1436 1431 1428 1427 1425 1420 1420 1420 1424 1425 1427 1429 1427 1430 1433 1435 1437 1441 1443 1443 1446 1448 1445 1459 1460 1457 1458 1459 1460 1460 1461 1461 1463 1467 1469 1469 1468 1469 1469 1470
1441 1440 1439 1438 1435 1434 1432 1432 1428 1427 1426 1427 1428 1428 1428 1430 1432 1432 1431 1434 1435 1437 1437 1438 1442 1447 1450 1452 1452 1452 1453 1454 1453 1450 1455 1457 1459 1460 1460 1460 1461 1461 1460
1441 1441 1440 1439 1440 1437 1435 1435 1434 1433 1431 1430 1431 1430 1431 1432 1433 1434 1433 1433 1435 1436 1437 1437 1434 1438 1440 1442 1445 1445 1446 1445 1445 1447 1446 1448 1451 1453 1452 1452 1453 1454 1452
1442 1441 1441 1439 1438 1438 1437 1436 1436 1437 1435 1434 1435 1435 1435 1434 1436 1436 1436 1434 1434 1435 1435 1436 1434 1432 1433 1436 1438 1439 1440 1439 1439 1439 1438 1440 1443 1445 1445 1444 1444 1445 1443
1441 1439 1440 1440 1438 1436 1437 1437 1436 1436 1435 1435 1434 1437 1436 1437 1436 1436 1436 1435 1433 1434 1435 1432 1433 1431 1430 1429 1432 1434 1434 1435 1434 1434 1433 1435 1438 1438 1438 1439 1438 1438 1438
1438 1438 1437 1438 1437 1435 1434 1435 1434 1435 1434 1436 1436 1434 1436 1437 1437 1436 1435 1434 1433 1433 1434 1432 1430 1431 1430 1427 1428 1429 1430 1430 1431 1431 1430 1431 1432 1432 1431 1431 1432 1433 1432
1436 1436 1436 1437 1437 1435 1435 1435 1434 1436 1435 1436 1434 1432 1434 1437 1439 1436 1434 1434 1432 1433 1433 1433 1430 1428 1427 1425 1424 1426 1427 1428 1428 1429 1428 1428 1427 1426 1426 1425 1426 1425 1425
1436 1436 1436 1436 1436 1435 1435 1436 1435 1435 1435 1433 1435 1434 1432 1433 1438 1437 1434 1434 1434 1432 1433 1432 1432 1430 1428 1428 1428 1425 1425 1426 1426 1425 1424 1424 1422 1422 1421 1421 1421 1420 1419
1434 1436 1436 1436 1434 1435 1435 1436 1435 1434 1435 1432 1432 1434 1431 1432 1437 1438 1434 1435 1434 1433 1434 1434 1432 1431 1431 1431 1430 1429 1427 1425 1425 1423 1421 1420 1419 1418 1417 1416 1416 1416 1416
1431 1434 1434 1434 1434 1432 1432 1432 1433 1433 1432 1432 1433 1433 1432 1433 1435 1435 1433 1432 1433 1434 1434 1433 1433 1434 1433 1433 1432 1430 1427 1427 1426 1424 1422 1422 1421 1419 1417 1415 1413 1412 1412
1431 1431 1431 1432 1431 1430 1430 1429 1430 1431 1431 1430 1429 1429 1430 1433 1433 1432 1433 1432 1433 1434 1433 1432 1433 1433 1432 1430 1430 1429 1427 1427 1427 1427 1425 1424 1423 1421 1420 1417 1415 1413 1412
1429 1429 1431 1432 1431 1430 1430 1429 1429 1429 1430 1429 1428 1428 1429 1429 1430 1429 1429 1430 1430 1432 1431 1431 1432 1432 1430 1429 1429 1430 1428 1427 1427 1426 1425 1425 1424 1421 1419 1419 1418 1416 1416
1426 1427 1428 1427 1428 1429 1429 1429 1429 1430 1430 1429 1428 1427 1426 1426 1427 1425 1426 1427 1428 1428 1429 1429 1430 1430 1429 1428 1428 1428 1427 1427 1425 1425 1424 1423 1423 1421 1420 1420 1419 1417 1420
1424 1425 1426 1426 1427 1428 1427 1427 1427 1427 1427 1427 1427 1426 1426 1424 1423 1423 1424 1425 1425 1425 1426 1426 1428 1428 1428 1428 1428 1426 1425 1424 1423 1423 1423 1421 1419 1421 1420 1419 1419 1419 1420